Regional Weather Roundup
Issued by NWS

Home | Current Version | Previous Version | Graphics & Text | Print | Product List | Glossary On
Versions: 1 2 3 4 5 6 7 8 9 10 11 12 13 14 15 16 17 18 19 20 21 22 23 24 25 26 27 28 29 30 31 32 33 34 35 36 37 38 39 40 41 42 43 44 45 46 47 48 49 50
000
ASUS43 KLMK 231202
RWRKY
KENTUCKY REGIONAL WEATHER ROUNDUP
NATIONAL WEATHER SERVICE LOUISVILLE KY
800 AM EDT TUE MAY 23 2017

NOTE "FAIR" INDICATES FEW OR NO CLOUDS BELOW 12,000 FEET
WITH NO SIGNIFICANT WEATHER AND/OR OBSTRUCTIONS TO VISIBILITY.

KYZ001>023-026-027-061>063-070>075-231300-
WESTERN AND SOUTH CENTRAL KENTUCKY

CITY           SKY/WX    TMP DP  RH WIND       PRES   REMARKS
PADUCAH        CLOUDY    59  55  87 CALM      29.81F
HENDERSON      SUNNY     60  54  80 CALM      29.84S
OWENSBORO      CLOUDY    61  52  72 NE6       29.84S
HOPKINSVILLE   CLOUDY    62  55  79 E5        29.81F
BOWLING GREEN  CLOUDY    61  56  83 NE5       29.83S
GLASGOW        NOT AVBL
$$

KYZ024-025-028>034-038-045-046-053-231300-
NORTH CENTRAL KENTUCKY

CITY           SKY/WX    TMP DP  RH WIND       PRES   REMARKS
LOUISVILLE/SDF PTSUNNY   59  53  80 N3        29.84F
LOUISVILLE/LOU CLOUDY    60  53  77 NE3       29.85F
FORT KNOX      CLOUDY    57  51  80 NE5       29.81F
$$

KYZ035>037-039>044-047>052-055>060-089>105-231300-
NORTHEAST KENTUCKY

CITY           SKY/WX    TMP DP  RH WIND       PRES   REMARKS
LEXINGTON      CLOUDY    57  52  83 NE7       29.85F
COVINGTON      CLOUDY    57  50  77 E5        29.89F
FRANKFORT      CLOUDY    58  50  75 NE3       29.84F
$$

KYZ054-064>069-076>088-106>120-231300-
SOUTHEAST KENTUCKY

CITY           SKY/WX    TMP DP  RH WIND       PRES   REMARKS
JACKSON        CLOUDY    56  51  84 VRB3      29.86F
LONDON         CLOUDY    57  52  83 CALM      29.85F
SOMERSET       CLOUDY    55  52  88 CALM      29.86S
MIDDLESBORO    CLOUDY    58  58  99 CALM      29.85F
MONTICELLO     CLOUDY    58  55  90 CALM      29.86R
$$




USA.gov is the U.S. government's official web portal to all federal, state and local government web resources and services.